SCP
0 0 0 0 0 0 0 -0 -0 -0 -0 -0 -0 0 -0 -0 -0 0 -0 -0 -0 0 -0 -0 -0 -0 -0 -0 -0 -0 -0 -0 -0 -0 -0 -0 -0 -0 -0 -0 -0 -0 -0
0 0 0 0 0 0 0 0 -0 -0 -0 -0 0 0 0 0 0 -0 -0 -0 0 0 0 0 -0 -0 -0 -0 -0 -0 -0 -0 -0 -0 -0 -0 -0 -0 -0 -0 -0 -0 -0
0 0 0 0 0 0 0 0 0 -0 -0 -0 0 0 0 0 0 0 -0 -0 0 0 0 -0 -0 -0 -0 -0 -0 -0 0 0 0 0 0 -0 0 -0 -0 -0 -0 -0 -0
0 0 0 0 0 0 0 0 0 -0 -0 -0 0 0 0 0 0 -0 -0 0 -0 -0 -0 -0 -0 -0 -0 -0 -0 -0 -0 -0 -0 -0 -0 -0 -0 -0 -0 -0 -0 -0 -0
0 0 0 0 0 0 0 0 0 -0 0 0 0 0 0 0 -0 0 -0 -0 -0 -0 -0 -0 -0 -0 -0 -0 -0 -0 -0 -0 -0 -0 -0 0 0 -0 -0 -0 -0 -0 -0
0 0 0 0 0 0 0 0 -0 0 -0 0 0 0 0 0 -0 -0 -0 -0 -0 -0 -0 -0 -0 -0 -0 -0 0 -0 -0 -0 -0 -0 0 0 0 -0 -0 -0 -0 -0 -0
0 -0 0 0 0 0 0 0 0 0 -0 0 0 -0 -0 -0 -0 -0 -0 -0 -0 -0 -0 -0 -0 -0 -0 -0 -0 -0 0 -0 -0 -0 0 0 0 -0 -0 -0 -0 -0 -0
0 0 0 0 0 0 0 0 0 0 0 -0 -0 -0 -0 -0 -0 -0 -0 -0 -0 -0 -0 -0 -0 -0 -0 -0 0 0 0 0 0 -0 0 0 -0 -0 -0 -0 -0 -0 -0
0 0 0 0 0 0 0 0 0 0 0 0 0 -0 -0 -0 -0 0 0 -0 0 0 0 0 0 -0 0 0 0 0 0 0 0 0 0 0 -0 -0 -0 0 0 0 0
0 0 0 0 0 0 0 0 0 0 0 0 0 0 0 0 0 0 0 0 0 0 0 0 0 0 0 0 0 0 0 0 0 0 0 0 0 -0 0 0 0 0 0
0 0 0 0 0 0 0 0 0 0 0 0 0 0 0 0 0 0 0 0 0 0 0 0 0 0 0 0 0 0 0 0 0 0 0 0 0 0 0 0 0 0 0
0 0 0 0 0 0 0 0 0 0 0 0 0 0 0 0 0 0 0 0 0 0 0 0 0 0 0 0 0 0 0 0 0 0 0 0 0 0 0 0 0 0 0
0 0 0 0 0 0 0 0 0 0 0 0 0 0 0 0 0 0 0 0 0 0 0 0 0 0 0 0 0 0 0 0 0 0 0 0 0 0 0 0 0 0 0
0 0 0 0 0 0 0 0 0 0 0 0 0 0 0 0 0 0 0 0 0 0 0 0 0 0 0 0 0 0 0 0 0 0 0 0 0 0 0 0 0 0 0
0 0 0 0 0 0 0 0 0 0 0 0 0 0 0 0 0 0 0 0 0 0 0 0 0 0 0 0 0 0 0 0 0 0 0 0 0 0 0 0 0 0 0
0 0 0 0 0 0 0 0 0 0 0 0 0 0 0 0 0 0 0 0 0 0 0 0 0 0 0 0 0 0 0 0 0 0 0 0 0 0 0 0 0 0 0
0 0 0 0 0 0 0 0 0 0 0 0 0 0 0 0 0 0 0 0 0 0 0 0 0 0 0 0 0 0 0 0 0 0 0 0 0 0 0 0 0 0 0
0 0 0 0 0 0 0 0 0 0 0 0 0 0 0 0 0 0 0 0 0 0 0 0 0 0 0 0 0 0 0 0 0 0 0 0 0 0 0 0 0 0 0
0 0 0 0 0 0 0 0 0 0 0 0 0 0 0 0 0 0 0 0 0 0 0 0 0 0 0 0 0 0 0 0 0 0 0 0 0 0 0 0 0 0 0
0 0 0 0 0 0 0 0 0 0 0 0 0 0 0 0 0 0 0 0 0 0 0 0 0 0 0 0 0 0 0 0 0 0 0 0 0 0 0 0 0 0 0
0 0 0 0 0 0 0 0 0 0 0 0 0 0 0 0 0 0 0 0 0 0 0 0 0 0 0 0 0 0 0 0 0 0 0 0 0 0 0 0 0 0 0
0 0 0 0 0 0 0 0 0 0 0 0 0 0 0 0 0 0 0 0 0 0 0 0 0 0 0 0 0 0 0 0 0 0 0 0 0 0 0 0 0 0 0
0 0 0 0 0 0 0 0 0 0 0 0 0 0 0 0 0 0 0 0 0 0 0 0 0 0 0 0 0 0 0 0 0 0 0 0 0 0 0 0 0 0 0
0 0 0 0 0 0 0 0 0 0 0 0 0 0 0 0 0 0 0 0 0 0 0 0 0 0 0 0 0 0 0 0 0 0 0 0 0 0 0 0 0 0 0
0 0 0 0 0 0 0 0 0 0 0 0 0 0 0 0 0 0 0 0 0 0 0 0 0 0 0 0 0 0 0 0 0 0 0 0 0 0 0 0 0 0 0
0 0 0 0 0 0 0 0 0 0 0 0 0 0 0 0 0 0 0 0 0 0 0 0 0 0 0 0 0 0 0 0 0 0 0 0 0 0 0 0 0 0 0
Wind_Speed_500mb
34 56 49 48 40 31 27 25 21 19 20 23 22 25 37 27 27 30 31 26 25 34 36 37 36 35 40 45 47 46 47 47 43 41 45 44 41 42 38 38 42 42 42
45 61 50 45 39 35 29 24 19 17 23 29 28 33 34 37 33 35 36 32 38 40 38 44 43 39 49 47 45 44 41 37 36 28 28 33 32 32 31 34 39 36 38
49 65 50 45 39 38 29 22 17 18 28 33 35 37 40 43 45 45 43 42 38 37 42 42 42 45 47 40 38 38 39 36 39 26 27 31 24 19 21 35 34 34 34
49 66 52 45 41 36 28 20 15 23 33 37 38 37 38 40 38 33 28 41 36 42 48 42 37 37 37 36 36 31 31 32 37 32 18 23 35 40 42 33 29 28 28
56 62 53 44 42 33 26 20 16 29 40 38 38 36 34 34 31 32 43 53 48 51 48 39 33 27 19 22 21 23 23 25 29 23 31 39 38 38 28 26 34 30 30
48 56 54 46 43 33 24 21 20 29 42 39 32 30 31 32 32 35 43 46 38 33 28 26 25 24 24 13 13 17 26 22 29 27 37 34 34 31 25 32 29 31 30
48 45 49 47 45 32 27 23 23 32 41 35 30 26 27 40 35 41 38 33 31 28 22 16 14 14 14 15 16 23 30 25 24 29 27 25 20 20 23 25 24 22 23
50 46 48 47 43 31 29 24 24 32 39 36 29 25 33 43 41 42 34 27 23 19 15 10 8 7 9 14 24 33 31 22 14 17 17 12 14 21 21 20 22 26 26
38 43 53 52 43 33 28 24 26 33 37 34 31 30 38 42 45 40 31 24 18 13 10 7 8 8 8 20 30 35 36 24 21 17 16 14 20 21 20 21 24 24 22
39 41 50 54 46 38 31 26 28 34 35 36 32 39 39 39 38 33 26 20 17 13 10 8 10 9 7 27 34 37 36 32 19 19 18 20 20 14 20 21 19 19 19
36 41 45 50 44 39 34 33 32 36 37 37 36 39 39 36 32 28 24 20 15 12 11 9 9 6 12 31 36 36 33 28 21 23 24 22 13 19 21 20 18 16 15
46 45 43 45 44 39 34 33 34 37 43 42 41 40 37 33 29 26 25 27 22 19 16 9 5 17 19 27 34 32 25 18 16 29 26 24 22 19 18 17 12 9 9
47 48 50 47 42 42 40 38 38 35 45 45 41 39 37 34 32 28 27 29 28 26 24 15 13 21 21 23 29 36 29 26 13 27 28 28 24 18 17 14 10 8 6
37 51 49 48 44 45 44 39 39 38 40 49 45 42 44 41 34 35 34 36 31 30 22 24 21 24 26 21 26 36 28 29 19 18 28 28 26 20 17 10 7 2 0
43 39 48 52 60 51 48 44 42 38 38 40 49 45 45 45 41 39 31 35 36 33 31 27 25 27 28 26 39 27 36 32 17 16 23 29 27 24 26 12 6 6 6
45 42 42 50 50 53 59 51 48 45 42 41 42 50 48 44 46 42 31 40 41 40 33 28 28 31 27 32 31 31 39 43 36 26 25 25 32 28 25 15 12 13 12
34 48 43 44 54 51 57 57 49 52 52 48 44 43 45 44 42 43 36 40 44 45 38 32 35 34 31 32 35 34 38 53 48 45 36 26 26 21 20 20 19 17 16
34 35 47 47 48 58 56 54 49 59 55 58 51 46 43 45 43 43 43 42 42 45 48 41 41 38 37 33 34 39 37 38 39 42 42 37 32 29 28 26 24 22 20
35 39 41 46 51 50 54 62 61 56 56 51 57 56 52 46 51 49 43 49 45 40 50 50 47 42 41 39 37 38 39 42 42 42 41 38 36 33 30 29 26 25 23
44 42 40 44 49 46 48 52 60 62 66 63 65 63 63 55 54 53 46 49 50 47 41 54 55 47 44 44 32 34 40 45 47 47 45 43 41 39 36 34 30 28 27
38 51 54 49 49 52 52 55 66 69 68 67 69 69 69 66 61 62 58 57 58 54 49 43 54 55 47 39 39 40 44 47 50 52 51 49 47 44 41 38 34 33 30
42 40 46 54 52 53 55 59 60 64 70 73 70 69 73 73 69 71 69 65 64 61 53 51 49 52 53 53 53 43 30 50 58 59 57 56 54 50 47 43 40 37 34
54 51 45 42 51 54 57 56 61 62 66 68 68 72 73 72 71 79 78 76 72 69 67 61 56 55 56 60 61 40 22 27 29 56 64 60 58 57 52 49 46 43 40
29 34 43 46 52 59 58 62 65 74 79 80 78 77 80 82 80 81 80 88 85 79 75 70 67 62 56 60 64 66 44 21 21 19 38 56 66 62 58 55 54 50 46
27 35 43 53 59 58 65 68 64 67 74 74 74 76 79 82 85 86 88 86 96 91 86 81 78 76 71 65 64 64 70 54 36 32 24 32 47 60 65 64 60 54 51
14 18 22 23 33 45 61 72 79 73 62 74 79 81 80 80 84 96 93 89 88 97 93 93 90 87 82 76 71 67 67 76 76 53 44 45 38 38 41 54 60 61 56
Wind_Direction_500mb
169 170 165 166 164 158 154 142 139 136 131 128 121 123 138 141 146 149 145 144 117 118 114 111 117 125 118 126 127 119 112 113 116 112 105 105 103 109 111 109 111 105 107
178 172 166 166 163 157 152 146 138 133 133 134 125 127 125 122 125 134 151 140 126 125 114 119 121 113 129 129 121 118 107 100 98 95 100 110 111 113 110 108 118 109 108
173 171 167 169 163 155 150 146 143 142 141 139 131 131 125 121 118 118 127 132 134 136 126 123 122 112 123 118 120 112 100 101 93 97 112 111 101 104 118 111 113 109 106
172 172 170 171 164 155 149 147 144 149 147 146 141 139 135 129 125 124 135 146 125 126 136 125 120 119 116 123 118 110 103 105 110 114 116 120 98 107 105 112 109 106 104
169 174 175 170 168 158 152 146 138 149 155 150 149 149 145 142 139 124 119 137 126 118 122 123 116 122 117 103 116 118 119 126 139 126 112 110 110 113 122 116 108 105 99
166 177 178 178 169 161 158 146 137 148 156 155 160 163 162 162 154 143 134 130 128 128 127 124 122 130 144 139 102 127 127 129 130 129 131 125 119 121 114 121 119 112 111
161 184 180 177 171 164 160 152 145 154 159 160 165 165 168 172 162 158 151 146 139 135 132 128 127 137 147 152 132 135 130 121 136 139 130 134 132 136 127 126 124 132 122
175 182 182 178 173 167 164 156 153 158 167 167 171 164 154 161 163 161 159 155 147 144 142 153 174 180 195 173 150 142 139 139 159 163 158 156 153 131 137 137 123 110 107
180 180 178 175 175 174 169 160 160 164 172 173 172 167 159 155 159 163 164 165 166 174 177 195 246 251 203 186 168 161 164 145 138 172 170 141 132 147 133 119 114 112 108
181 179 178 178 179 179 174 168 167 172 177 179 174 172 167 164 164 166 170 180 176 188 216 242 256 253 234 178 170 168 178 176 161 156 145 156 152 142 130 121 115 108 107
183 184 186 189 188 184 181 174 174 179 182 184 177 173 178 181 182 183 186 190 204 213 241 238 240 232 187 174 172 171 182 198 211 167 161 165 162 146 141 129 130 119 112
190 190 194 194 193 196 192 187 182 184 187 188 185 180 182 186 196 203 208 219 226 231 235 206 294 181 175 176 183 174 171 198 211 183 168 163 162 165 145 147 134 119 96
191 194 202 198 198 199 206 196 192 190 192 192 197 193 191 189 197 204 227 228 221 214 205 186 215 179 177 197 196 170 165 184 188 188 171 173 173 172 161 154 150 129 105
204 200 200 204 203 198 208 208 203 193 193 192 202 203 202 203 201 215 231 228 212 205 206 206 194 187 171 166 153 152 178 169 194 224 200 181 177 180 188 206 164 183 310
196 210 208 204 208 211 218 212 202 201 199 202 204 208 211 209 204 225 236 213 198 204 207 201 206 194 187 181 167 169 173 172 191 210 198 194 192 183 183 186 229 273 286
195 203 219 213 209 210 212 215 210 199 206 203 209 212 220 211 213 224 231 206 202 209 212 206 211 198 192 185 183 189 188 184 178 198 213 215 208 203 199 228 260 270 276
214 193 217 219 212 215 213 219 223 215 210 203 214 219 217 213 220 232 221 212 214 216 213 215 206 204 199 188 200 195 199 198 200 205 222 209 217 223 231 249 260 265 273
214 216 206 224 216 215 215 211 218 218 217 212 212 222 227 216 216 212 214 220 221 223 219 214 209 207 210 207 203 215 215 213 213 217 223 231 229 232 238 243 247 254 261
220 218 218 217 231 221 219 215 220 226 231 222 223 221 224 222 215 221 224 221 229 228 219 216 214 215 212 212 220 225 224 226 227 228 229 231 236 239 241 244 251 255 261
220 215 220 222 233 240 223 214 221 227 233 229 231 229 226 224 218 225 230 215 225 230 228 223 222 217 215 213 210 219 234 234 233 233 234 237 238 241 245 249 248 254 256
230 223 220 217 222 230 231 221 222 226 231 233 231 231 230 230 225 223 224 222 229 236 234 229 223 218 213 215 216 222 233 239 238 237 237 240 242 245 248 250 252 253 256
242 242 237 222 222 222 230 235 229 228 234 237 237 236 232 232 232 228 227 223 224 228 239 237 229 217 211 210 213 216 229 239 239 237 238 241 245 247 248 250 250 254 258
248 240 234 227 221 224 227 234 238 233 235 236 233 238 236 234 232 234 230 232 230 229 230 234 237 234 222 217 220 210 205 227 237 242 243 244 245 248 248 248 249 251 252
239 225 225 233 231 223 221 226 235 234 229 233 235 235 236 241 236 237 236 232 234 233 233 233 232 232 236 231 222 226 221 222 214 235 238 238 240 243 247 247 247 249 250
249 247 246 242 240 233 226 223 229 238 242 244 239 236 240 238 243 240 238 237 233 235 236 237 235 231 232 234 238 239 227 227 226 231 236 239 241 245 246 247 249 248 248
269 258 253 250 247 243 235 230 227 230 240 240 236 235 236 238 239 242 238 241 241 237 237 238 239 238 239 238 237 238 243 232 232 225 231 245 252 256 256 252 250 249 250
Wind_Speed_850mb
34 56 49 48 40 31 27 25 21 19 20 23 22 25 37 27 27 30 31 26 25 34 36 37 36 35 40 45 47 46 47 47 43 41 45 44 41 42 38 38 42 42 42
45 61 50 45 39 35 29 24 19 17 23 29 28 33 34 37 33 35 36 32 38 40 38 44 43 39 49 47 45 44 41 37 36 28 28 33 32 32 31 34 39 36 38
49 65 50 45 39 38 29 22 17 18 28 33 35 37 40 43 45 45 43 42 38 37 42 42 42 45 47 40 38 38 39 36 39 26 27 31 24 19 21 35 34 34 34
49 66 52 45 41 36 28 20 15 23 33 37 38 37 38 40 38 33 28 41 36 42 48 42 37 37 37 36 36 31 31 32 37 32 18 23 35 40 42 33 29 28 28
56 62 53 44 42 33 26 20 16 29 40 38 38 36 34 34 31 32 43 53 48 51 48 39 33 27 19 22 21 23 23 25 29 23 31 39 38 38 28 26 34 30 30
48 56 54 46 43 33 24 21 20 29 42 39 32 30 31 32 32 35 43 46 38 33 28 26 25 24 24 13 13 17 26 22 29 27 37 34 34 31 25 32 29 31 30
48 45 49 47 45 32 27 23 23 32 41 35 30 26 27 40 35 41 38 33 31 28 22 16 14 14 14 15 16 23 30 25 24 29 27 25 20 20 23 25 24 22 23
50 46 48 47 43 31 29 24 24 32 39 36 29 25 33 43 41 42 34 27 23 19 15 10 8 7 9 14 24 33 31 22 14 17 17 12 14 21 21 20 22 26 26
38 43 53 52 43 33 28 24 26 33 37 34 31 30 38 42 45 40 31 24 18 13 10 7 8 8 8 20 30 35 36 24 21 17 16 14 20 21 20 21 24 24 22
39 41 50 54 46 38 31 26 28 34 35 36 32 39 39 39 38 33 26 20 17 13 10 8 10 9 7 27 34 37 36 32 19 19 18 20 20 14 20 21 19 19 19
36 41 45 50 44 39 34 33 32 36 37 37 36 39 39 36 32 28 24 20 15 12 11 9 9 6 12 31 36 36 33 28 21 23 24 22 13 19 21 20 18 16 15
46 45 43 45 44 39 34 33 34 37 43 42 41 40 37 33 29 26 25 27 22 19 16 9 5 17 19 27 34 32 25 18 16 29 26 24 22 19 18 17 12 9 9
47 48 50 47 42 42 40 38 38 35 45 45 41 39 37 34 32 28 27 29 28 26 24 15 13 21 21 23 29 36 29 26 13 27 28 28 24 18 17 14 10 8 6
37 51 49 48 44 45 44 39 39 38 40 49 45 42 44 41 34 35 34 36 31 30 22 24 21 24 26 21 26 36 28 29 19 18 28 28 26 20 17 10 7 2 0
43 39 48 52 60 51 48 44 42 38 38 40 49 45 45 45 41 39 31 35 36 33 31 27 25 27 28 26 39 27 36 32 17 16 23 29 27 24 26 12 6 6 6
45 42 42 50 50 53 59 51 48 45 42 41 42 50 48 44 46 42 31 40 41 40 33 28 28 31 27 32 31 31 39 43 36 26 25 25 32 28 25 15 12 13 12
34 48 43 44 54 51 57 57 49 52 52 48 44 43 45 44 42 43 36 40 44 45 38 32 35 34 31 32 35 34 38 53 48 45 36 26 26 21 20 20 19 17 16
34 35 47 47 48 58 56 54 49 59 55 58 51 46 43 45 43 43 43 42 42 45 48 41 41 38 37 33 34 39 37 38 39 42 42 37 32 29 28 26 24 22 20
35 39 41 46 51 50 54 62 61 56 56 51 57 56 52 46 51 49 43 49 45 40 50 50 47 42 41 39 37 38 39 42 42 42 41 38 36 33 30 29 26 25 23
44 42 40 44 49 46 48 52 60 62 66 63 65 63 63 55 54 53 46 49 50 47 41 54 55 47 44 44 32 34 40 45 47 47 45 43 41 39 36 34 30 28 27
38 51 54 49 49 52 52 55 66 69 68 67 69 69 69 66 61 62 58 57 58 54 49 43 54 55 47 39 39 40 44 47 50 52 51 49 47 44 41 38 34 33 30
42 40 46 54 52 53 55 59 60 64 70 73 70 69 73 73 69 71 69 65 64 61 53 51 49 52 53 53 53 43 30 50 58 59 57 56 54 50 47 43 40 37 34
54 51 45 42 51 54 57 56 61 62 66 68 68 72 73 72 71 79 78 76 72 69 67 61 56 55 56 60 61 40 22 27 29 56 64 60 58 57 52 49 46 43 40
29 34 43 46 52 59 58 62 65 74 79 80 78 77 80 82 80 81 80 88 85 79 75 70 67 62 56 60 64 66 44 21 21 19 38 56 66 62 58 55 54 50 46
27 35 43 53 59 58 65 68 64 67 74 74 74 76 79 82 85 86 88 86 96 91 86 81 78 76 71 65 64 64 70 54 36 32 24 32 47 60 65 64 60 54 51
14 18 22 23 33 45 61 72 79 73 62 74 79 81 80 80 84 96 93 89 88 97 93 93 90 87 82 76 71 67 67 76 76 53 44 45 38 38 41 54 60 61 56
Wind_Direction_850mb
169 170 165 166 164 158 154 142 139 136 131 128 121 123 138 141 146 149 145 144 117 118 114 111 117 125 118 126 127 119 112 113 116 112 105 105 103 109 111 109 111 105 107
178 172 166 166 163 157 152 146 138 133 133 134 125 127 125 122 125 134 151 140 126 125 114 119 121 113 129 129 121 118 107 100 98 95 100 110 111 113 110 108 118 109 108
173 171 167 169 163 155 150 146 143 142 141 139 131 131 125 121 118 118 127 132 134 136 126 123 122 112 123 118 120 112 100 101 93 97 112 111 101 104 118 111 113 109 106
172 172 170 171 164 155 149 147 144 149 147 146 141 139 135 129 125 124 135 146 125 126 136 125 120 119 116 123 118 110 103 105 110 114 116 120 98 107 105 112 109 106 104
169 174 175 170 168 158 152 146 138 149 155 150 149 149 145 142 139 124 119 137 126 118 122 123 116 122 117 103 116 118 119 126 139 126 112 110 110 113 122 116 108 105 99
166 177 178 178 169 161 158 146 137 148 156 155 160 163 162 162 154 143 134 130 128 128 127 124 122 130 144 139 102 127 127 129 130 129 131 125 119 121 114 121 119 112 111
161 184 180 177 171 164 160 152 145 154 159 160 165 165 168 172 162 158 151 146 139 135 132 128 127 137 147 152 132 135 130 121 136 139 130 134 132 136 127 126 124 132 122
175 182 182 178 173 167 164 156 153 158 167 167 171 164 154 161 163 161 159 155 147 144 142 153 174 180 195 173 150 142 139 139 159 163 158 156 153 131 137 137 123 110 107
180 180 178 175 175 174 169 160 160 164 172 173 172 167 159 155 159 163 164 165 166 174 177 195 246 251 203 186 168 161 164 145 138 172 170 141 132 147 133 119 114 112 108
181 179 178 178 179 179 174 168 167 172 177 179 174 172 167 164 164 166 170 180 176 188 216 242 256 253 234 178 170 168 178 176 161 156 145 156 152 142 130 121 115 108 107
183 184 186 189 188 184 181 174 174 179 182 184 177 173 178 181 182 183 186 190 204 213 241 238 240 232 187 174 172 171 182 198 211 167 161 165 162 146 141 129 130 119 112
190 190 194 194 193 196 192 187 182 184 187 188 185 180 182 186 196 203 208 219 226 231 235 206 294 181 175 176 183 174 171 198 211 183 168 163 162 165 145 147 134 119 96
191 194 202 198 198 199 206 196 192 190 192 192 197 193 191 189 197 204 227 228 221 214 205 186 215 179 177 197 196 170 165 184 188 188 171 173 173 172 161 154 150 129 105
204 200 200 204 203 198 208 208 203 193 193 192 202 203 202 203 201 215 231 228 212 205 206 206 194 187 171 166 153 152 178 169 194 224 200 181 177 180 188 206 164 183 310
196 210 208 204 208 211 218 212 202 201 199 202 204 208 211 209 204 225 236 213 198 204 207 201 206 194 187 181 167 169 173 172 191 210 198 194 192 183 183 186 229 273 286
195 203 219 213 209 210 212 215 210 199 206 203 209 212 220 211 213 224 231 206 202 209 212 206 211 198 192 185 183 189 188 184 178 198 213 215 208 203 199 228 260 270 276
214 193 217 219 212 215 213 219 223 215 210 203 214 219 217 213 220 232 221 212 214 216 213 215 206 204 199 188 200 195 199 198 200 205 222 209 217 223 231 249 260 265 273
214 216 206 224 216 215 215 211 218 218 217 212 212 222 227 216 216 212 214 220 221 223 219 214 209 207 210 207 203 215 215 213 213 217 223 231 229 232 238 243 247 254 261
220 218 218 217 231 221 219 215 220 226 231 222 223 221 224 222 215 221 224 221 229 228 219 216 214 215 212 212 220 225 224 226 227 228 229 231 236 239 241 244 251 255 261
220 215 220 222 233 240 223 214 221 227 233 229 231 229 226 224 218 225 230 215 225 230 228 223 222 217 215 213 210 219 234 234 233 233 234 237 238 241 245 249 248 254 256
230 223 220 217 222 230 231 221 222 226 231 233 231 231 230 230 225 223 224 222 229 236 234 229 223 218 213 215 216 222 233 239 238 237 237 240 242 245 248 250 252 253 256
242 242 237 222 222 222 230 235 229 228 234 237 237 236 232 232 232 228 227 223 224 228 239 237 229 217 211 210 213 216 229 239 239 237 238 241 245 247 248 250 250 254 258
248 240 234 227 221 224 227 234 238 233 235 236 233 238 236 234 232 234 230 232 230 229 230 234 237 234 222 217 220 210 205 227 237 242 243 244 245 248 248 248 249 251 252
239 225 225 233 231 223 221 226 235 234 229 233 235 235 236 241 236 237 236 232 234 233 233 233 232 232 236 231 222 226 221 222 214 235 238 238 240 243 247 247 247 249 250
249 247 246 242 240 233 226 223 229 238 242 244 239 236 240 238 243 240 238 237 233 235 236 237 235 231 232 234 238 239 227 227 226 231 236 239 241 245 246 247 249 248 248
269 258 253 250 247 243 235 230 227 230 240 240 236 235 236 238 239 242 238 241 241 237 237 238 239 238 239 238 237 238 243 232 232 225 231 245 252 256 256 252 250 249 250